Regional Weather Roundup
Issued by NWS

Home | Current Version | Previous Version | Text Only | Print | Product List | Glossary On
Versions: 1 2 3 4 5 6 7 8 9 10 11 12 13 14 15 16 17 18 19 20 21 22 23 24 25 26 27 28 29 30 31 32 33 34 35 36 37 38 39 40 41 42 43 44 45 46 47 48 49 50
000
ASUS46 KPQR 280310
RWROR

OREGON REGIONAL WEATHER ROUNDUP
NATIONAL WEATHER SERVICE PORTLAND OR
800 PM PDT THU AUG 27 2015

NOTE: "FAIR" INDICATES FEW OR NO CLOUDS BELOW 12,000 FEET WITH
NO SIGNIFICANT WEATHER AND/OR OBSTRUCTIONS TO VISIBILITY.

ORZ001>013-280400-
NORTHWEST OREGON


CITY           SKY/WX    TMP DP  RH WIND       PRES   REMARKS
ASTORIA        CLOUDY    62  57  83 SW3       30.00S
NEWPORT        CLOUDY    63  55  77 CALM      30.06F HAZE
PORTLAND       MOCLDY    82  47  29 CALM      29.93F
VANCOUVER WA   MOCLDY    81  45  28 CALM      29.93F
SCAPPOOSE      MOCLDY    80  50  34 NW6       29.93F
HILLSBORO      CLOUDY    83  46  27 S3        29.95S
AURORA         MOCLDY    80  48  32 CALM      29.95F
MCMINNVILLE    CLOUDY    81  45  28 W9        29.96S
SALEM          CLOUDY    81  44  27 W9        29.96R
CORVALLIS      CLOUDY    73  43  33 W18       30.01R
EUGENE         MOCLDY    77  37  23 W13       30.01R
$$

ORZ021-028-280400-
SOUTHWEST OREGON


CITY           SKY/WX    TMP DP  RH WIND       PRES   REMARKS
NORTH BEND     CLOUDY    64  55  72 W3        30.06S
BROOKINGS      CLOUDY    63  58  83 CALM      30.08S
ROSEBURG       MOCLDY    80  42  25 NW7       30.01R
SEXTON SUMMIT  MOCLDY    66  42  41 VRB5      30.14S
MEDFORD        MOCLDY    83  43  24 NW7       29.99R
$$

ORZ014>016-041-280400-
COLUMBIA GORGE


CITY           SKY/WX    TMP DP  RH WIND       PRES   REMARKS
TROUTDALE      MOCLDY    83  49  30 N3        29.93F
THE DALLES     PTCLDY    87  41  19 NW17      29.89F
$$

ORZ029>031-041-044-049-050-061>064-502-503-505>511-280400-
EASTERN OREGON


CITY           SKY/WX    TMP DP  RH WIND       PRES   REMARKS
REDMOND        PTCLDY    79  42  26 NW12      30.03R
BEND           PTCLDY    77  41  27 NW9G17    30.05R
PRINEVILLE     MOCLDY    81  36  19 NW8       30.03R
KLAMATH FALLS  PTCLDY    75  44  33 W8        30.09S
LAKEVIEW       PTCLDY    73  36  25 SW6       30.15S
HERMISTON      CLEAR     81  47  30 S5        29.89R
PENDLETON      CLEAR     78  40  25 NW6       29.95R
JOHN DAY       CLEAR     81  31  16 SW3       30.05R
MEACHAM        PTCLDY    70  39  32 CALM      30.10R
LA GRANDE      PTCLDY    79  39  24 W8        30.00S
BAKER CITY     PTCLDY    74  47  38 SW5       30.05R
BURNS          PTCLDY    76  32  20 CALM      30.08F
ROME             N/A     82  29  14 SW7       30.06S
ONTARIO        MOCLDY    78  49  35 CALM      29.97S
$$


USA.gov is the U.S. government's official web portal to all federal, state and local government web resources and services.